Location: Althorst
(53.6379°N, 10.7715°E)
Time: 12:46:56
(UTC+00:00)

Cosmos 1867 - Pass Details

Date: 10 December 2019
Orbit: 777 x 799 km, 65.0° (Epoch: 18 January)

Event Time Altitude Azimuth Distance (km) Brightness Sun altitude
Rises 18:00:52 0° 314° (NW) 3,316 7.4 -25.8°
Reaches altitude 10° 18:03:20 10° 311° (NW) 2,382 6.6 -26.1°
Maximum altitude 18:08:41 56° 234° (SW) 949 4.1 -26.9°
Enters shadow 18:10:42 35° 176° (S) 1,258 4.5 -27.2°
